Back to catalog

COSMOS 1562

AliveMilitaryLEO
NORAD 15001·PAYLOAD·🇷🇺 Russia

Launched May 28, 1984 from Plesetsk Cosmodrome

Loading…

Next Passes (next 24 hours)

TLE

FreshSource: Space-Track

Epoch: Sep 14, 2026, 19:31 UTC

1 15001U 84052D   26257.81335921 -.00000006  00000-0  65990-4 0  9990
2 15001  74.0128 196.9718 0015323 345.5279  41.5839 12.49966711929984

Track COSMOS 1562 in real time with AllMySat

Download on the App Store